Flag for Sweden Weather past 2 weeks in Eskilstuna, Sweden

Now
59 °F

Rain. Broken clouds.


Feels Like: 57 °F
Forecast: 55 / 62 °F
Wind: 9 mph from East

Location: Vasteras / Hasslo

Current Time: Jul 29, 2015 at 8:53:44 PM

Latest Report: Jul 29, 2015 at 8:20 PM


Visibility: 3 mi

Pressure: 29.45 "Hg

Humidity: 94%

Dew point: 57 °F

Location of EskilstunaLocation

Historic Weather in Eskilstuna — Graph

°F

Eskilstuna temperature yesterday

Maximum temperature yesterday: 66 °F (at 3:20 PM)
Minimum temperature yesterday: 52 °F (at 1:20 AM)
Average temperature yesterday: 59 °F

Past Weeks' High & Low Weather Summary

 TemperatureHumidityPressure
High72 °F (Jul 15, 1:20 PM)100% (Jul 15, 12:20 AM)29.98 "Hg (Jul 15, 12:20 AM)
Low50 °F (Jul 18, 12:20 AM)40% (Jul 18, 4:50 PM)29.33 "Hg (Jul 26, 11:50 AM)
Average60 °F77%29.69 "Hg
* Reported Jul 14 7:20 PM — Jul 29 7:50 PM, Eskilstuna, Weather by CustomWeather, © 2015

Note: Actual official high and low records may vary slightly from our data, if they occured in-between our weather recording intervals... More about our weather records

Advertising

Eskilstuna weather history for previous 24 hours

 ConditionsComfort  
Time TempWeatherWind HumidityBarometerVisibility
7:50 PM
Wed, Jul 29
61 °FScattered clouds.7 mph88%29.45 "HgN/A
7:20 PM61 °FSprinkles. Scattered clouds.7 mph88%29.45 "HgN/A
6:50 PM61 °FSprinkles. Scattered clouds.7 mph88%29.45 "HgN/A
6:20 PM63 °FPartly sunny.9 mph77%29.45 "HgN/A
5:50 PM63 °FScattered clouds.9 mph77%29.45 "HgN/A
5:20 PM63 °FSunny.9 mph77%29.45 "Hg10 mi
4:50 PM63 °FSunny.10 mph77%29.47 "Hg10 mi
4:20 PM63 °FPassing clouds.8 mph73%29.47 "HgN/A
3:50 PM63 °FPassing clouds.10 mph73%29.47 "HgN/A
3:20 PM63 °FPassing clouds.12 mph73%29.47 "HgN/A
2:50 PM63 °FLight rain. Scattered clouds.15 mph73%29.47 "HgN/A
2:20 PM64 °FPartly sunny.9 mph68%29.47 "HgN/A
1:50 PM64 °FPartly sunny.8 mph68%29.47 "HgN/A
1:20 PM64 °FPassing clouds.8 mph68%29.47 "HgN/A
12:50 PM63 °FPassing clouds.9 mph73%29.47 "HgN/A
12:20 PM64 °FSunny.12 mph68%29.47 "Hg10 mi
11:50 AM64 °FPartly sunny.10 mph68%29.47 "HgN/A
11:20 AM63 °FPassing clouds.9 mph77%29.47 "HgN/A
10:50 AM63 °FPassing clouds.10 mph73%29.47 "HgN/A
10:20 AM63 °FSunny.10 mph77%29.47 "Hg10 mi
9:20 AM63 °FSunny.10 mph77%29.50 "Hg10 mi
8:50 AM61 °FSunny.9 mph83%29.50 "Hg10 mi
8:20 AM59 °FPassing clouds.9 mph88%29.50 "HgN/A
7:50 AM59 °FSunny.9 mph88%29.50 "Hg10 mi
7:20 AM59 °FSunny.8 mph88%29.50 "Hg10 mi
6:50 AM57 °FSunny.9 mph94%29.50 "Hg10 mi
6:20 AM57 °FSunny.8 mph88%29.50 "Hg10 mi
5:50 AM57 °FSunny.10 mph88%29.50 "Hg10 mi
5:20 AM57 °FPassing clouds.9 mph88%29.50 "HgN/A
4:50 AM57 °FPassing clouds.9 mph88%29.50 "HgN/A
4:20 AM57 °FPassing clouds.7 mph88%29.50 "HgN/A
3:50 AM57 °FPartly cloudy.7 mph88%29.50 "HgN/A
3:20 AM57 °FPassing clouds.8 mph88%29.50 "HgN/A
2:50 AM57 °FPartly cloudy.8 mph88%29.50 "HgN/A
2:20 AM57 °FPassing clouds.8 mph88%29.53 "HgN/A
1:50 AM57 °FPassing clouds.8 mph88%29.53 "HgN/A
1:20 AM57 °FPassing clouds.7 mph88%29.53 "HgN/A
12:50 AM57 °FPassing clouds.8 mph88%29.53 "HgN/A
11:20 PM
Tue, Jul 28
59 °FPassing clouds.8 mph88%29.53 "HgN/A
10:50 PM59 °FPassing clouds.7 mph88%29.53 "HgN/A
10:20 PM59 °FSunny.7 mph88%29.53 "Hg10 mi
9:50 PM61 °FSunny.7 mph83%29.53 "Hg10 mi
9:20 PM61 °FSunny.8 mph83%29.53 "Hg10 mi
8:50 PM61 °FSunny.8 mph83%29.53 "Hg10 mi
8:20 PM61 °FSunny.8 mph83%29.53 "Hg10 mi
Weather by CustomWeather, © 2015

See weather overviewHow to use our weather pages